Powrót do katalogu

ORBCOMM FM 119

AktywnyŁącznośćLEO
NORAD 41180·PAYLOAD·🇺🇸 United States

Wystrzelony Dec 22, 2015 z Cape Canaveral Space Force Station

Loading…

Następne Przeloty (najbliższe 24 godziny)

TLE

ŚwieżeSource: Space-Track

Epoka: Sep 14, 2026, 13:32 UTC

1 41180U 15081B   26257.56391083  .00000332  00000-0  10635-3 0  9992
2 41180  46.9993 208.7837 0001874 310.4412  49.6310 14.58875530572054

Śledź ORBCOMM FM 119 w czasie rzeczywistym z AllMySat

Download on the App Store